SCP
0 0 0 0 0 0 0 0 0 0 0 0 0 0 0 0 0 0 0 0 0 0 0 0 0 0 0 0 0 0 0 0 0 0 0 0 0 0 0 0 0 0 0 0 0
0 0 0 0 0 0 0 0 0 0 0 0 0 0 0 0 0 0 0 0 0 0 0 0 0 0 0 0 0 0 0 0 0 0 0 0 0 0 0 0 0 0 0 0 0
0 0 0 0 0 0 0 0 0 0 0 0 0 0 0 0 0 0 0 0 0 0 0 0 0 0 0 0 0 0 0 0 0 0 0 0 0 0 0 0 0 0 0 0 0
0 0 0 0 0 0 0 0 0 0 0 0 0 0 0 0 0 0 0 0 0 0 0 0 0 0 0 0 0 0 0 0 0 0 0 0 0 0 0 0 0 0 0 0 0
0 0 0 0 0 0 0 0 0 0 0 0 0 0 0 0 0 0 0 0 0 0 0 0 0 0 0 0 0 0 0 0 0 0 0 0 0 0 0 0 0 0 0 0 0
0 0 0 0 0 0 0 0 0 0 0 0 0 0 0 0 0 0 0 0 0 0 0 0 0 0 0 0 0 0 0 0 0 0 0 0 0 0 0 0 0 0 0 0 0
0 0 0 0 0 0 0 0 0 0 0 0 0 0 0 0 0 0 0 0 0 0 0 0 0 0 0 0 0 0 0 0 0 0 0 0 0 0 0 0 0 0 0 0 0
0 0 0 0 0 0 0 0 0 0 0 0 0 0 0 0 0 0 0 0 0 0 0 0 0 0 0 0 0 0 0 0 0 0 0 0 -0 0 0 0 0 0 0 0 0
0 0 0 0 0 0 0 0 0 0 0 0 0 0 0 0 0 0 0 0 0 0 0 0 0 0 0 0 0 0 0 0 0 0 0 0 0 0 0 0 0 0 0 0 0
0 0 0 0 0 0 0 0 0 0 0 0 0 0 0 0 0 0 0 0 0 0 0 0 0 0 0 0 0 0 0 0 0 0 0 0 0 0 0 0 0 0 0 0 0
0 0 0 0 0 0 0 0 0 0 0 0 0 0 0 0 0 0 0 0 0 0 0 0 0 0 0 0 0 0 0 0 0 0 0 0 0 0 0 0 0 0 0 0 0
-0 0 0 0 0 0 0 0 0 0 0 0 0 0 0 0 0 0 0 0 0 0 0 0 0 0 0 0 0 0 0 0 0 0 0 0 0 0 0 0 0 0 0 0 0
0 0 0 0 0 0 0 0 0 0 0 0 0 0 0 0 0 0 0 0 0 0 0 0 0 0 0 0 0 0 0 0 0 0 0 0 -0 0 0 0 0 0 0 0 0
0 0 0 0 0 0 0 0 0 0 0 0 0 0 0 0 0 0 0 0 0 0 0 0 0 0 0 0 0 0 0 0 0 0 0 0 -0 -0 0 0 0 0 0 0 0
0 0 0 0 0 0 0 0 0 0 0 0 0 0 0 0 0 0 0 0 0 0 0 0 0 0 0 0 0 0 0 0 0 0 0 0 0 0 0 0 0 0 0 0 0
0 0 0 0 0 0 0 0 0 0 0 0 0 0 0 0 0 0 0 0 0 0 0 0 0 0 0 0 0 0 0 0 0 0 0 0 0 -0 0 0 0 0 0 0 0
0 0 0 0 0 0 0 0 0 0 0 0 0 0 0 0 0 0 0 0 0 0 0 0 0 0 0 0 0 0 0 0 0 0 0 0 0 0 0 0 0 0 0 0 0
0 0 0 0 0 0 0 0 0 0 0 0 0 0 0 0 0 0 0 0 0 0 0 0 0 0 0 0 0 0 0 0 0 0 0 0 0 0 0 0 0 0 0 0 0
0 0 0 0 0 0 0 0 0 0 0 0 0 0 0 0 0 0 0 0 0 0 0 0 0 0 0 0 0 0 0 0 0 0 0 0 0 0 0 0 0 0 0 0 0
0 0 0 0 0 0 0 0 0 0 0 0 0 0 0 0 0 0 0 0 0 0 0 0 0 0 0 0 0 0 0 0 0 0 0 0 0 0 0 0 0 0 0 0 0
0 0 0 0 0 0 0 0 0 0 0 0 0 0 0 0 0 0 0 0 0 0 0 0 0 0 0 0 0 0 0 0 0 0 0 0 0 0 0 0 0 0 0 0 0
0 0 0 0 0 0 0 0 0 0 0 0 0 0 0 0 0 0 0 0 0 0 0 0 0 0 0 0 0 0 0 0 0 0 0 0 0 0 0 0 0 0 0 0 0
0 0 0 0 0 0 0 0 0 0 0 0 0 0 0 0 0 0 0 0 0 0 0 0 0 0 0 0 0 0 0 0 0 0 0 0 0 0 0 0 0 0 0 0 0
0 0 0 0 0 0 0 0 0 0 0 0 0 0 0 0 0 0 0 0 0 0 0 0 0 0 0 0 0 0 0 0 0 0 0 0 0 0 0 0 0 0 0 0 0
0 0 0 0 0 0 0 0 0 0 0 0 0 0 0 0 0 0 0 0 0 0 0 0 0 0 0 0 0 0 0 0 0 0 0 0 0 0 0 0 0 0 0 0 0
0 0 0 0 0 0 0 0 0 0 0 0 0 0 0 0 0 0 0 0 0 0 0 0 0 0 0 0 0 0 0 0 0 0 0 0 0 0 0 0 0 0 0 0 0
0 0 0 0 0 0 0 0 0 0 0 0 0 0 0 0 0 0 0 0 0 0 0 0 0 0 0 0 0 0 0 0 0 0 0 0 0 0 0 0 0 0 0 0 0
Wind_Speed_500mb
61 59 52 44 45 42 41 43 47 52 47 41 38 38 36 36 40 38 34 30 20 19 18 18 17 14 12 7 7 4 7 2 6 9 3 1 4 2 4 3 6 3 4 9 14
58 61 63 55 44 44 44 41 40 45 50 47 40 35 32 33 34 44 42 36 26 22 17 15 13 9 2 4 4 7 6 13 4 5 2 1 3 3 5 3 6 10 11 12 12
59 62 63 64 54 47 46 42 39 40 44 47 44 36 28 25 25 46 49 42 36 25 19 14 8 5 2 1 2 5 9 6 2 2 2 2 3 2 5 4 10 6 3 11 16
70 59 61 65 66 54 48 43 40 39 41 43 43 39 28 24 13 8 19 31 44 41 29 17 8 3 3 2 2 5 6 6 2 3 1 4 7 9 10 5 7 8 11 20 22
65 67 59 60 69 65 57 46 44 39 39 41 42 38 37 33 34 5 6 16 35 46 39 26 16 10 7 6 3 6 6 4 6 10 11 13 16 16 18 26 23 20 25 19 21
62 63 68 56 60 69 63 54 47 42 37 39 41 45 45 35 24 42 5 12 18 39 37 31 14 19 7 5 7 4 6 3 6 12 14 9 11 9 3 10 19 20 20 25 23
61 67 64 66 55 61 67 56 49 43 39 38 41 51 46 46 14 40 52 22 3 24 38 32 21 19 15 5 11 4 4 1 11 10 9 7 8 15 30 29 30 34 34 25 26
63 64 66 59 59 59 60 60 53 48 41 38 41 47 23 45 36 22 34 49 18 17 21 32 31 15 10 10 4 6 7 2 5 7 10 11 26 7 17 16 23 22 26 33 36
68 56 59 60 60 57 58 55 52 43 43 39 42 29 18 29 48 35 20 35 40 18 25 25 26 16 15 9 8 6 7 10 10 2 4 12 9 11 11 18 26 33 46 52 58
71 76 59 63 65 57 53 55 48 44 46 43 34 21 24 26 41 55 29 31 41 32 21 15 16 9 7 17 22 13 7 6 12 2 4 13 20 24 53 49 52 56 58 60 67
74 80 74 54 69 63 56 54 38 28 68 23 28 7 3 34 33 60 48 31 35 36 15 18 9 26 31 20 7 6 9 11 3 6 3 14 27 23 50 43 50 62 66 69 78
65 72 75 57 67 71 66 68 71 15 18 32 26 49 12 38 25 50 53 37 28 21 18 8 35 16 3 19 24 19 13 9 5 4 4 12 39 19 19 35 53 59 64 75 85
62 73 75 60 63 68 81 85 63 32 9 24 35 59 39 42 24 54 65 36 19 26 32 29 1 36 17 10 16 13 26 9 9 0 7 11 50 27 16 42 43 46 56 61 62
60 64 75 64 65 84 90 82 66 46 7 15 33 24 38 30 11 35 74 38 10 25 15 21 21 15 8 28 14 19 13 11 7 4 13 6 31 26 12 23 11 47 55 60 62
72 66 79 72 36 88 87 83 66 42 24 25 21 25 48 42 32 25 61 54 16 13 12 10 17 27 16 15 18 14 13 15 9 7 6 10 13 6 17 9 15 39 44 48 35
77 70 76 73 83 85 82 88 64 19 24 15 25 22 33 37 13 27 25 28 12 9 4 6 3 11 16 9 23 15 10 6 5 6 19 16 19 38 6 11 4 9 7 11 5
71 75 79 85 66 79 91 89 26 24 18 19 24 31 47 27 25 13 24 24 15 17 28 10 11 4 7 14 5 13 16 6 9 13 14 11 18 44 17 26 14 25 27 17 22
63 71 75 89 72 99 99 32 29 24 19 8 25 38 41 23 30 26 29 31 21 5 10 26 13 22 12 13 12 23 18 8 11 8 4 4 16 12 3 11 21 13 36 34 35
60 68 73 79 80 108 74 35 23 14 22 27 30 34 23 28 21 30 30 35 33 25 17 17 13 4 4 8 19 11 19 18 6 7 5 9 19 26 10 11 20 33 44 44 43
61 65 77 80 101 110 37 24 13 10 14 23 25 27 31 35 25 34 36 31 25 39 4 13 3 5 9 10 3 12 14 7 10 11 14 9 9 15 14 18 14 16 25 42 42
49 27 59 92 109 76 25 18 9 2 12 14 9 15 26 26 30 34 31 8 44 32 30 11 8 7 12 17 28 11 12 4 2 7 10 8 11 11 12 9 19 17 26 37 40
15 8 74 113 22 7 10 20 15 9 9 10 8 6 23 37 33 33 28 36 55 41 37 15 9 10 17 9 13 16 25 22 12 11 7 3 15 10 12 21 49 54 44 39 38
13 24 35 54 5 7 8 12 11 8 6 5 7 6 4 18 22 27 24 22 39 35 34 26 13 8 4 5 4 17 23 23 8 3 13 11 11 9 13 19 27 48 52 47 38
13 7 15 12 12 13 15 8 11 13 6 11 7 9 4 9 7 34 17 11 48 46 40 51 8 30 27 9 13 16 18 29 24 9 25 23 26 19 18 20 25 36 53 45 34
14 5 5 8 5 17 13 6 10 9 11 22 7 13 6 11 23 9 30 8 16 45 37 23 16 13 19 9 8 9 27 33 38 50 23 44 21 30 30 27 51 53 47 41 34
10 9 12 8 34 16 4 14 29 8 16 11 16 28 32 19 5 19 10 12 13 11 29 10 8 16 19 14 12 7 11 32 46 45 29 40 21 10 36 41 47 48 52 45 35
27 33 15 6 6 14 12 11 12 8 6 11 33 17 20 36 57 46 18 30 19 27 29 20 12 11 30 13 13 17 41 30 27 38 28 31 53 14 21 38 58 59 61 51 38
Wind_Direction_500mb
247 244 244 241 237 236 235 233 233 235 236 237 237 238 241 251 262 258 251 252 254 268 284 290 294 315 351 43 58 86 66 173 185 166 215 273 174 134 140 195 238 248 291 311 324
248 246 243 242 238 237 234 232 231 234 234 233 235 236 237 245 255 259 246 246 246 254 267 283 300 310 0 35 52 86 113 214 193 196 166 268 201 172 160 169 240 255 280 304 316
245 243 241 240 240 236 235 230 229 228 229 229 230 231 232 238 259 265 259 246 235 235 244 258 291 5 109 61 54 132 168 207 213 179 298 316 297 307 155 245 231 228 264 316 313
241 242 240 237 237 238 238 233 227 225 223 222 221 224 222 215 217 221 249 234 225 222 228 229 216 154 118 192 179 135 215 167 71 76 290 299 305 295 212 256 312 216 302 311 308
240 239 240 235 233 234 238 235 227 223 221 218 212 210 207 199 217 179 39 223 209 211 215 213 198 173 175 189 192 159 207 198 262 283 278 270 265 269 271 279 281 270 289 295 303
241 236 236 237 233 231 234 231 228 219 216 214 206 202 208 219 228 224 196 78 198 209 203 200 204 200 170 182 180 152 192 245 274 276 272 249 258 250 176 285 286 272 270 292 295
241 234 233 232 234 229 229 229 226 216 211 210 202 206 214 217 221 223 227 238 81 197 211 202 195 183 175 164 220 185 251 329 227 246 250 275 259 239 264 263 265 268 278 282 299
242 238 230 229 228 226 221 223 220 215 208 205 204 207 219 226 217 216 225 222 225 177 196 206 202 192 180 150 91 167 79 146 276 199 228 165 264 231 268 245 258 265 275 284 289
239 235 235 226 222 222 215 211 216 213 206 198 201 198 225 218 215 204 213 210 214 185 181 195 198 196 188 172 234 213 233 201 306 186 284 191 261 243 256 259 271 282 289 295 299
252 237 224 224 214 216 210 201 206 205 197 191 200 187 222 201 209 201 203 192 190 192 183 174 180 178 191 198 215 206 215 206 208 299 246 256 255 270 272 275 280 286 291 295 296
244 242 228 209 214 210 201 187 183 198 183 187 179 182 178 191 197 197 201 185 188 194 181 188 205 203 205 221 212 162 198 217 254 204 211 246 261 257 272 280 282 285 287 290 291
240 242 233 209 211 209 204 188 192 194 173 179 179 194 158 175 174 198 193 187 189 198 139 179 227 211 108 195 202 216 223 206 218 264 212 294 280 256 240 260 267 273 283 288 289
234 234 236 217 206 206 206 199 189 178 174 195 180 186 168 175 186 195 192 193 185 194 189 211 133 184 193 203 201 212 226 169 215 12 250 324 286 271 234 239 257 265 273 277 283
230 229 231 215 220 202 204 197 193 186 232 173 174 192 185 171 241 190 197 186 173 192 154 220 213 163 163 211 171 220 160 160 142 103 266 154 287 274 259 248 235 263 269 284 295
227 224 230 221 212 200 196 195 191 183 224 178 160 186 188 168 151 188 193 197 182 169 171 202 184 186 201 201 185 236 155 173 151 180 287 213 275 308 82 321 277 268 290 292 292
229 223 222 224 224 197 191 188 182 207 208 174 140 165 159 198 173 146 171 185 165 145 34 214 238 186 187 159 182 152 108 104 125 196 242 209 202 276 211 194 276 287 268 303 18
219 221 216 219 214 190 181 175 195 212 156 169 167 168 182 178 176 157 173 178 170 182 215 155 206 178 146 148 91 165 134 197 212 199 254 206 189 250 310 301 228 249 271 113 102
218 217 214 220 205 185 172 185 208 191 168 172 159 176 184 152 193 186 166 192 213 153 152 206 208 195 174 198 171 189 185 193 216 200 230 54 232 251 126 329 331 348 127 122 114
220 219 219 217 221 187 175 200 186 145 158 152 162 175 180 179 165 184 191 198 193 194 173 181 234 60 205 166 156 175 213 213 327 99 260 224 270 281 53 43 15 121 125 119 116
206 209 213 209 188 179 188 191 152 107 126 148 168 174 182 178 169 185 183 200 197 200 205 193 111 225 182 172 170 171 157 159 191 225 232 245 259 236 355 325 23 72 93 115 118
194 156 213 191 177 182 191 177 102 120 159 150 136 162 178 178 187 184 189 188 192 190 179 145 126 179 139 203 191 182 198 144 137 191 219 227 244 200 224 238 113 87 121 124 121
133 123 156 166 163 177 138 144 109 134 39 100 77 83 176 177 189 190 193 206 198 164 193 180 142 175 198 175 194 216 210 187 219 196 219 222 272 178 225 161 144 151 153 143 129
65 93 131 141 103 105 87 77 84 107 131 92 118 61 348 161 189 197 208 201 179 176 176 176 201 169 248 214 195 206 214 214 193 97 210 222 252 181 180 174 183 157 156 150 142
72 90 79 95 93 84 86 84 103 142 121 135 112 99 348 168 198 194 201 196 183 189 188 170 180 210 218 206 141 199 199 209 196 221 233 233 247 216 203 193 167 166 161 155 156
59 38 94 146 98 79 75 106 99 159 207 158 135 159 177 222 196 183 203 147 197 182 186 176 221 209 234 164 166 208 203 202 207 222 210 243 222 238 202 187 185 173 168 168 172
92 114 75 60 122 80 108 177 183 177 161 194 193 198 191 223 213 199 169 178 185 197 190 201 229 179 236 208 197 215 207 208 214 229 228 246 256 151 193 181 180 183 180 184 184
89 109 118 84 96 154 181 171 165 123 222 224 212 180 197 214 211 229 219 292 261 172 191 191 181 176 231 172 171 235 234 210 218 225 213 220 238 142 171 185 191 189 190 185 183
Wind_Speed_850mb
61 59 52 44 45 42 41 43 47 52 47 41 38 38 36 36 40 38 34 30 20 19 18 18 17 14 12 7 7 4 7 2 6 9 3 1 4 2 4 3 6 3 4 9 14
58 61 63 55 44 44 44 41 40 45 50 47 40 35 32 33 34 44 42 36 26 22 17 15 13 9 2 4 4 7 6 13 4 5 2 1 3 3 5 3 6 10 11 12 12
59 62 63 64 54 47 46 42 39 40 44 47 44 36 28 25 25 46 49 42 36 25 19 14 8 5 2 1 2 5 9 6 2 2 2 2 3 2 5 4 10 6 3 11 16
70 59 61 65 66 54 48 43 40 39 41 43 43 39 28 24 13 8 19 31 44 41 29 17 8 3 3 2 2 5 6 6 2 3 1 4 7 9 10 5 7 8 11 20 22
65 67 59 60 69 65 57 46 44 39 39 41 42 38 37 33 34 5 6 16 35 46 39 26 16 10 7 6 3 6 6 4 6 10 11 13 16 16 18 26 23 20 25 19 21
62 63 68 56 60 69 63 54 47 42 37 39 41 45 45 35 24 42 5 12 18 39 37 31 14 19 7 5 7 4 6 3 6 12 14 9 11 9 3 10 19 20 20 25 23
61 67 64 66 55 61 67 56 49 43 39 38 41 51 46 46 14 40 52 22 3 24 38 32 21 19 15 5 11 4 4 1 11 10 9 7 8 15 30 29 30 34 34 25 26
63 64 66 59 59 59 60 60 53 48 41 38 41 47 23 45 36 22 34 49 18 17 21 32 31 15 10 10 4 6 7 2 5 7 10 11 26 7 17 16 23 22 26 33 36
68 56 59 60 60 57 58 55 52 43 43 39 42 29 18 29 48 35 20 35 40 18 25 25 26 16 15 9 8 6 7 10 10 2 4 12 9 11 11 18 26 33 46 52 58
71 76 59 63 65 57 53 55 48 44 46 43 34 21 24 26 41 55 29 31 41 32 21 15 16 9 7 17 22 13 7 6 12 2 4 13 20 24 53 49 52 56 58 60 67
74 80 74 54 69 63 56 54 38 28 68 23 28 7 3 34 33 60 48 31 35 36 15 18 9 26 31 20 7 6 9 11 3 6 3 14 27 23 50 43 50 62 66 69 78
65 72 75 57 67 71 66 68 71 15 18 32 26 49 12 38 25 50 53 37 28 21 18 8 35 16 3 19 24 19 13 9 5 4 4 12 39 19 19 35 53 59 64 75 85
62 73 75 60 63 68 81 85 63 32 9 24 35 59 39 42 24 54 65 36 19 26 32 29 1 36 17 10 16 13 26 9 9 0 7 11 50 27 16 42 43 46 56 61 62
60 64 75 64 65 84 90 82 66 46 7 15 33 24 38 30 11 35 74 38 10 25 15 21 21 15 8 28 14 19 13 11 7 4 13 6 31 26 12 23 11 47 55 60 62
72 66 79 72 36 88 87 83 66 42 24 25 21 25 48 42 32 25 61 54 16 13 12 10 17 27 16 15 18 14 13 15 9 7 6 10 13 6 17 9 15 39 44 48 35
77 70 76 73 83 85 82 88 64 19 24 15 25 22 33 37 13 27 25 28 12 9 4 6 3 11 16 9 23 15 10 6 5 6 19 16 19 38 6 11 4 9 7 11 5
71 75 79 85 66 79 91 89 26 24 18 19 24 31 47 27 25 13 24 24 15 17 28 10 11 4 7 14 5 13 16 6 9 13 14 11 18 44 17 26 14 25 27 17 22
63 71 75 89 72 99 99 32 29 24 19 8 25 38 41 23 30 26 29 31 21 5 10 26 13 22 12 13 12 23 18 8 11 8 4 4 16 12 3 11 21 13 36 34 35
60 68 73 79 80 108 74 35 23 14 22 27 30 34 23 28 21 30 30 35 33 25 17 17 13 4 4 8 19 11 19 18 6 7 5 9 19 26 10 11 20 33 44 44 43
61 65 77 80 101 110 37 24 13 10 14 23 25 27 31 35 25 34 36 31 25 39 4 13 3 5 9 10 3 12 14 7 10 11 14 9 9 15 14 18 14 16 25 42 42
49 27 59 92 109 76 25 18 9 2 12 14 9 15 26 26 30 34 31 8 44 32 30 11 8 7 12 17 28 11 12 4 2 7 10 8 11 11 12 9 19 17 26 37 40
15 8 74 113 22 7 10 20 15 9 9 10 8 6 23 37 33 33 28 36 55 41 37 15 9 10 17 9 13 16 25 22 12 11 7 3 15 10 12 21 49 54 44 39 38
13 24 35 54 5 7 8 12 11 8 6 5 7 6 4 18 22 27 24 22 39 35 34 26 13 8 4 5 4 17 23 23 8 3 13 11 11 9 13 19 27 48 52 47 38
13 7 15 12 12 13 15 8 11 13 6 11 7 9 4 9 7 34 17 11 48 46 40 51 8 30 27 9 13 16 18 29 24 9 25 23 26 19 18 20 25 36 53 45 34
14 5 5 8 5 17 13 6 10 9 11 22 7 13 6 11 23 9 30 8 16 45 37 23 16 13 19 9 8 9 27 33 38 50 23 44 21 30 30 27 51 53 47 41 34
10 9 12 8 34 16 4 14 29 8 16 11 16 28 32 19 5 19 10 12 13 11 29 10 8 16 19 14 12 7 11 32 46 45 29 40 21 10 36 41 47 48 52 45 35
27 33 15 6 6 14 12 11 12 8 6 11 33 17 20 36 57 46 18 30 19 27 29 20 12 11 30 13 13 17 41 30 27 38 28 31 53 14 21 38 58 59 61 51 38
Wind_Direction_850mb
247 244 244 241 237 236 235 233 233 235 236 237 237 238 241 251 262 258 251 252 254 268 284 290 294 315 351 43 58 86 66 173 185 166 215 273 174 134 140 195 238 248 291 311 324
248 246 243 242 238 237 234 232 231 234 234 233 235 236 237 245 255 259 246 246 246 254 267 283 300 310 0 35 52 86 113 214 193 196 166 268 201 172 160 169 240 255 280 304 316
245 243 241 240 240 236 235 230 229 228 229 229 230 231 232 238 259 265 259 246 235 235 244 258 291 5 109 61 54 132 168 207 213 179 298 316 297 307 155 245 231 228 264 316 313
241 242 240 237 237 238 238 233 227 225 223 222 221 224 222 215 217 221 249 234 225 222 228 229 216 154 118 192 179 135 215 167 71 76 290 299 305 295 212 256 312 216 302 311 308
240 239 240 235 233 234 238 235 227 223 221 218 212 210 207 199 217 179 39 223 209 211 215 213 198 173 175 189 192 159 207 198 262 283 278 270 265 269 271 279 281 270 289 295 303
241 236 236 237 233 231 234 231 228 219 216 214 206 202 208 219 228 224 196 78 198 209 203 200 204 200 170 182 180 152 192 245 274 276 272 249 258 250 176 285 286 272 270 292 295
241 234 233 232 234 229 229 229 226 216 211 210 202 206 214 217 221 223 227 238 81 197 211 202 195 183 175 164 220 185 251 329 227 246 250 275 259 239 264 263 265 268 278 282 299
242 238 230 229 228 226 221 223 220 215 208 205 204 207 219 226 217 216 225 222 225 177 196 206 202 192 180 150 91 167 79 146 276 199 228 165 264 231 268 245 258 265 275 284 289
239 235 235 226 222 222 215 211 216 213 206 198 201 198 225 218 215 204 213 210 214 185 181 195 198 196 188 172 234 213 233 201 306 186 284 191 261 243 256 259 271 282 289 295 299
252 237 224 224 214 216 210 201 206 205 197 191 200 187 222 201 209 201 203 192 190 192 183 174 180 178 191 198 215 206 215 206 208 299 246 256 255 270 272 275 280 286 291 295 296
244 242 228 209 214 210 201 187 183 198 183 187 179 182 178 191 197 197 201 185 188 194 181 188 205 203 205 221 212 162 198 217 254 204 211 246 261 257 272 280 282 285 287 290 291
240 242 233 209 211 209 204 188 192 194 173 179 179 194 158 175 174 198 193 187 189 198 139 179 227 211 108 195 202 216 223 206 218 264 212 294 280 256 240 260 267 273 283 288 289
234 234 236 217 206 206 206 199 189 178 174 195 180 186 168 175 186 195 192 193 185 194 189 211 133 184 193 203 201 212 226 169 215 12 250 324 286 271 234 239 257 265 273 277 283
230 229 231 215 220 202 204 197 193 186 232 173 174 192 185 171 241 190 197 186 173 192 154 220 213 163 163 211 171 220 160 160 142 103 266 154 287 274 259 248 235 263 269 284 295
227 224 230 221 212 200 196 195 191 183 224 178 160 186 188 168 151 188 193 197 182 169 171 202 184 186 201 201 185 236 155 173 151 180 287 213 275 308 82 321 277 268 290 292 292
229 223 222 224 224 197 191 188 182 207 208 174 140 165 159 198 173 146 171 185 165 145 34 214 238 186 187 159 182 152 108 104 125 196 242 209 202 276 211 194 276 287 268 303 18
219 221 216 219 214 190 181 175 195 212 156 169 167 168 182 178 176 157 173 178 170 182 215 155 206 178 146 148 91 165 134 197 212 199 254 206 189 250 310 301 228 249 271 113 102
218 217 214 220 205 185 172 185 208 191 168 172 159 176 184 152 193 186 166 192 213 153 152 206 208 195 174 198 171 189 185 193 216 200 230 54 232 251 126 329 331 348 127 122 114
220 219 219 217 221 187 175 200 186 145 158 152 162 175 180 179 165 184 191 198 193 194 173 181 234 60 205 166 156 175 213 213 327 99 260 224 270 281 53 43 15 121 125 119 116
206 209 213 209 188 179 188 191 152 107 126 148 168 174 182 178 169 185 183 200 197 200 205 193 111 225 182 172 170 171 157 159 191 225 232 245 259 236 355 325 23 72 93 115 118
194 156 213 191 177 182 191 177 102 120 159 150 136 162 178 178 187 184 189 188 192 190 179 145 126 179 139 203 191 182 198 144 137 191 219 227 244 200 224 238 113 87 121 124 121
133 123 156 166 163 177 138 144 109 134 39 100 77 83 176 177 189 190 193 206 198 164 193 180 142 175 198 175 194 216 210 187 219 196 219 222 272 178 225 161 144 151 153 143 129
65 93 131 141 103 105 87 77 84 107 131 92 118 61 348 161 189 197 208 201 179 176 176 176 201 169 248 214 195 206 214 214 193 97 210 222 252 181 180 174 183 157 156 150 142
72 90 79 95 93 84 86 84 103 142 121 135 112 99 348 168 198 194 201 196 183 189 188 170 180 210 218 206 141 199 199 209 196 221 233 233 247 216 203 193 167 166 161 155 156
59 38 94 146 98 79 75 106 99 159 207 158 135 159 177 222 196 183 203 147 197 182 186 176 221 209 234 164 166 208 203 202 207 222 210 243 222 238 202 187 185 173 168 168 172
92 114 75 60 122 80 108 177 183 177 161 194 193 198 191 223 213 199 169 178 185 197 190 201 229 179 236 208 197 215 207 208 214 229 228 246 256 151 193 181 180 183 180 184 184
89 109 118 84 96 154 181 171 165 123 222 224 212 180 197 214 211 229 219 292 261 172 191 191 181 176 231 172 171 235 234 210 218 225 213 220 238 142 171 185 191 189 190 185 183